Franklin, NC

5:15 AM EDT on August 24, 2016 (GMT -0400)
Franklin

Weather History for K1A5 - July, 2014

Change the Weather History Date:

Friday, July 4, 2014

  Actual Average (KTOC) Record (KTOC)
Temperature  
Mean Temperature 66 °F -  
Max Temperature 80 °F 87 °F 97 °F (2016)
Min Temperature 51 °F 66 °F 67 °F (2014)
Growing Degree Days 16 (Base 50)    
Moisture  
Dew Point 53 °F    
Average Humidity 67    
Maximum Humidity 100    
Minimum Humidity 37    
Precipitation  
Precipitation 0.00 in - - ()
Sea Level Pressure  
Sea Level Pressure 30.20 in    
Wind  
Wind Speed 2 mph (WNW)    
Max Wind Speed 9 mph    
Max Gust Speed -    
Visibility 10 miles    
Events      
Averages and records for this station are not official NWS values.
T = Trace of Precipitation, MM = Missing Value Source: NWS Daily Summary

Daily Weather History Graph

Daily Weather History Graph

Search for Another Location

Airport or City:

Trip Planner

Search our weather history database for the weather conditions in past years. The results will help you decide how hot, cold, wet, or windy it might be!

Date:

Astronomy

Jul. 04, 2014 Rise Set
Actual Time 6:24 AM EDT 8:51 PM EDT
Civil Twilight 5:54 AM EDT 9:21 PM EDT
Nautical Twilight 5:17 AM EDT 9:57 PM EDT
Astronomical Twilight 4:37 AM EDT 10:38 PM EDT
Moon 1:03 PM EDT (7/4) 12:28 AM EDT (7/4)
Length of Visible Light 15h 26m
Length of Day
14h 27m
Waxing Crescent, 42% of the Moon is Illuminated
Jul 4
Waxing Crescent
Jul 5
First Quarter
Jul 12
Full
Jul 18
Last Quarter
Jul 26
New

Hourly Weather History & Observations

Time (EDT) Temp. Heat Index Dew Point Humidity Pressure Visibility Wind Dir Wind Speed Gust Speed Precip Events Conditions
12:15 AM 60.8 °F - 54.1 °F 79% 30.13 in 10.0 mi West 3.5 mph - N/A   Clear
12:35 AM 61.5 °F - 53.6 °F 75% 30.13 in 10.0 mi West 4.6 mph - N/A   Clear
12:55 AM 62.1 °F - 52.9 °F 72% 30.13 in 10.0 mi West 3.5 mph - N/A   Clear
1:15 AM 59.9 °F - 53.6 °F 80% 30.13 in 10.0 mi WSW 4.6 mph - N/A   Clear
1:35 AM 59.2 °F - 53.6 °F 82% 30.13 in 10.0 mi WSW 3.5 mph - N/A   Clear
1:55 AM 57.9 °F - 53.8 °F 86% 30.13 in 10.0 mi Calm Calm - N/A   Clear
2:15 AM 57.6 °F - 53.8 °F 87% 30.13 in 10.0 mi Calm Calm - N/A   Clear
2:35 AM 57.4 °F - 54.1 °F 89% 30.13 in 10.0 mi Calm Calm - N/A   Clear
2:55 AM 56.5 °F - 55.4 °F 96% 30.13 in 10.0 mi Calm Calm - N/A   Clear
3:15 AM 55.8 °F - 55.4 °F 99% 30.14 in 10.0 mi Calm Calm - N/A   Clear
3:35 AM 55.0 °F - 55.0 °F 100% 30.14 in 10.0 mi Calm Calm - N/A   Clear
3:55 AM 54.3 °F - 54.3 °F 100% 30.14 in 10.0 mi Calm Calm - N/A   Clear
4:15 AM 54.0 °F - 54.0 °F 100% 30.15 in 10.0 mi Calm Calm - N/A   Clear
4:35 AM 53.6 °F - 53.6 °F 100% 30.16 in 7.0 mi Calm Calm - N/A   Clear
4:55 AM 53.4 °F - 53.4 °F 100% 30.16 in 10.0 mi Calm Calm - N/A   Clear
5:15 AM 53.1 °F - 53.1 °F 100% 30.16 in 10.0 mi Calm Calm - N/A   Clear
5:35 AM 52.5 °F - 52.5 °F 100% 30.17 in 7.0 mi Calm Calm - N/A   Clear
5:55 AM 52.2 °F - 52.2 °F 100% 30.17 in 7.0 mi Calm Calm - N/A   Clear
6:20 AM 51.6 °F - 51.6 °F 100% 30.18 in 5.0 mi Calm Calm - N/A   Clear
6:35 AM 51.8 °F - 51.8 °F 100% 30.18 in 4.0 mi Calm Calm - N/A   Clear
6:55 AM 51.8 °F - 51.8 °F 100% 30.18 in 7.0 mi Calm Calm - N/A   Clear
7:20 AM 52.9 °F - 52.9 °F 100% 30.19 in 10.0 mi Calm Calm - N/A   Clear
7:35 AM 54.1 °F - 54.1 °F 100% 30.20 in 10.0 mi Calm Calm - N/A   Clear
7:55 AM 55.4 °F - 55.4 °F 100% 30.20 in 10.0 mi Calm Calm - N/A   Clear
8:15 AM 56.8 °F - 56.7 °F 99% 30.21 in 10.0 mi Calm Calm - N/A   Clear
8:35 AM 59.5 °F - 56.3 °F 89% 30.21 in 10.0 mi Calm Calm - N/A   Clear
8:55 AM 61.5 °F - 54.0 °F 76% 30.22 in 10.0 mi Calm Calm - N/A   Clear
9:15 AM 64.2 °F - 55.2 °F 73% 30.22 in 10.0 mi Calm Calm - N/A   Clear
9:35 AM 66.9 °F - 54.0 °F 63% 30.22 in 10.0 mi North 3.5 mph - N/A   Clear
9:55 AM 68.4 °F - 53.6 °F 59% 30.23 in 10.0 mi WNW 4.6 mph - N/A   Clear
10:15 AM 69.1 °F - 53.2 °F 57% 30.22 in 10.0 mi Calm Calm - N/A   Clear
10:35 AM 69.8 °F - 54.9 °F 59% 30.22 in 10.0 mi West 3.5 mph - N/A   Clear
10:55 AM 70.5 °F - 52.5 °F 53% 30.23 in 10.0 mi NW 3.5 mph - N/A   Clear
11:15 AM 71.8 °F - 53.4 °F 52% 30.23 in 10.0 mi Calm Calm - N/A   Clear
11:35 AM 73.0 °F - 54.0 °F 51% 30.23 in 10.0 mi NW 4.6 mph - N/A   Clear
11:55 AM 74.8 °F - 51.8 °F 44% 30.23 in 10.0 mi NE 8.1 mph - N/A   Clear
12:15 PM 75.0 °F - 50.9 °F 43% 30.22 in 10.0 mi Calm Calm - N/A   Clear
12:35 PM 74.8 °F - 51.4 °F 44% 30.22 in 10.0 mi Calm Calm - N/A   Clear
12:55 PM 75.6 °F - 50.5 °F 41% 30.22 in 10.0 mi Calm Calm - N/A   Clear
1:15 PM 76.1 °F - 52.3 °F 43% 30.21 in 10.0 mi West 8.1 mph - N/A   Clear
1:35 PM 77.7 °F - 50.7 °F 39% 30.21 in 10.0 mi Calm Calm - N/A   Clear
1:55 PM 77.9 °F - 49.8 °F 37% 30.21 in 10.0 mi East 3.5 mph - N/A   Clear
2:15 PM 77.9 °F - 54.5 °F 44% 30.20 in 10.0 mi NW 4.6 mph - N/A   Clear
2:35 PM 77.9 °F - 55.0 °F 45% 30.20 in 10.0 mi WSW 9.2 mph - N/A   Clear
2:55 PM 78.4 °F - 52.5 °F 40% 30.20 in 10.0 mi West 3.5 mph - N/A   Clear
3:15 PM 78.8 °F - 54.7 °F 43% 30.20 in 10.0 mi Calm Calm - N/A   Clear
3:35 PM 78.8 °F - 54.0 °F 42% 30.20 in 10.0 mi Calm Calm - N/A   Clear
3:55 PM 79.5 °F - 54.1 °F 41% 30.20 in 10.0 mi NW 4.6 mph - N/A   Clear
4:15 PM 79.7 °F - 53.1 °F 40% 30.20 in 10.0 mi Calm Calm - N/A   Clear
4:35 PM 79.9 °F - 52.9 °F 39% 30.19 in 10.0 mi NW 5.8 mph - N/A   Clear
4:55 PM 80.2 °F 80.2 °F 54.5 °F 41% 30.19 in 10.0 mi West 9.2 mph - N/A   Clear
5:15 PM 80.1 °F 80.0 °F 53.8 °F 40% 30.19 in 10.0 mi NW 4.6 mph - N/A   Clear
5:35 PM 80.1 °F 79.9 °F 53.2 °F 39% 30.19 in 10.0 mi NW 4.6 mph - N/A   Clear
5:55 PM 80.1 °F 80.0 °F 53.8 °F 40% 30.19 in 10.0 mi WNW 4.6 mph - N/A   Clear
6:15 PM 79.7 °F - 53.8 °F 41% 30.19 in 10.0 mi West 4.6 mph - N/A   Clear
6:35 PM 79.0 °F - 52.3 °F 39% 30.20 in 10.0 mi NW 4.6 mph - N/A   Clear
6:55 PM 78.4 °F - 53.1 °F 41% 30.20 in 10.0 mi NW 5.8 mph - N/A   Clear
7:15 PM 77.5 °F - 52.7 °F 42% 30.20 in 10.0 mi NNW 6.9 mph - N/A   Clear
7:35 PM 76.5 °F - 52.2 °F 43% 30.21 in 10.0 mi NNW 5.8 mph - N/A   Clear
7:55 PM 75.4 °F - 51.4 °F 43% 30.21 in 10.0 mi NNW 6.9 mph - N/A   Clear
8:15 PM 73.9 °F - 51.1 °F 45% 30.22 in 10.0 mi WNW 6.9 mph - N/A   Clear
8:35 PM 72.9 °F - 50.9 °F 46% 30.23 in 10.0 mi NW 4.6 mph - N/A   Clear
8:55 PM 71.8 °F - 51.1 °F 48% 30.23 in 10.0 mi Calm Calm - N/A   Clear
9:15 PM 66.9 °F - 55.0 °F 66% 30.23 in 10.0 mi Calm Calm - N/A   Clear
9:35 PM 63.0 °F - 55.4 °F 76% 30.24 in 10.0 mi Calm Calm - N/A   Clear
9:55 PM 61.9 °F - 55.2 °F 79% 30.25 in 10.0 mi WSW 3.5 mph - N/A   Clear
10:15 PM 59.9 °F - 55.6 °F 86% 30.26 in 7.0 mi WSW 3.5 mph - N/A   Clear
10:35 PM 60.1 °F - 55.0 °F 83% 30.26 in 10.0 mi Calm Calm - N/A   Clear
11:15 PM 57.9 °F - 54.9 °F 90% 30.28 in 10.0 mi Calm Calm - N/A   Clear
11:35 PM 57.4 °F - 55.4 °F 93% 30.28 in 10.0 mi Calm Calm - N/A   Clear